Simultaneous Nadir Overpasses (SNOs) Predictions

Prediction of SNOs between AQUA and NPP Satellite Orbit:

Table of predicted SNOs for the next 14.0 days since TLE Epoch: 8/14/2020
Index Date (AQUA) Time (AQUA) Lat,Lon (AQUA) SZA (AQUA ) Date (NPP) Time (NPP) Lat,Lon (NPP) SZA (NPP ) Distance(km) Time Diff (sec)
1 08/15/2020 06:21:49 75.82, -36.91 84.05 08/15/2020 06:21:37 75.82, -36.88 84.05 0.79 12
2 08/15/2020 07:11:00 -76.60, 133.22 96.87 08/15/2020 07:12:06 -76.59, 133.14 96.90 2.30 66
3 08/17/2020 21:49:12 -74.86, -91.33 94.07 08/17/2020 21:48:10 -74.86, -91.36 94.01 0.91 62
4 08/17/2020 22:38:09 76.29, 80.43 84.30 08/17/2020 22:38:23 76.30, 80.53 84.27 2.82 14
5 08/20/2020 14:05:30 -75.44, 26.11 93.90 08/20/2020 14:04:54 -75.45, 26.14 93.88 1.02 36
6 08/20/2020 14:54:36 76.41,-163.29 84.99 08/20/2020 14:55:17 76.41,-163.31 84.96 0.67 41
7 08/23/2020 06:21:56 -75.57, 142.35 93.20 08/23/2020 06:21:47 -75.56, 142.26 93.18 2.48 9
8 08/23/2020 07:10:55 76.86, -45.85 85.30 08/23/2020 07:12:02 76.87, -45.77 85.22 2.26 67
9 08/25/2020 21:49:12 74.86, 88.67 88.45 08/25/2020 21:48:12 74.86, 88.64 88.51 1.14 60
10 08/25/2020 22:38:14 -76.13,-100.08 92.99 08/25/2020 22:38:31 -76.13,-100.07 93.01 0.30 17
11 08/28/2020 14:05:28 75.53,-153.64 88.58 08/28/2020 14:04:54 75.54,-153.58 88.59 2.00 34
